Home   Weather   Merseburg   Past weeks

Flag for Germany Past Weather in Merseburg, Saxony-Anhalt, Germany — Yesterday and Last 2 Weeks

Now
21 °F

Ice fog.


Feels Like: 13 °F
Forecast: 19 / 27 °F
Wind: 7 mph from East

Location: Leipzig-Schkeuditz

Current Time: Jan 21, 2017 at 11:07:33 pm

Latest Report: Jan 21, 2017 at 10:50 pm


Visibility: 0 mi

Pressure: 30.42 "Hg

Humidity: 100%

Dew Point: 21 °F

Location of MerseburgLocation

Past Weather in Merseburg — Graph

°F

Merseburg Temperature Yesterday

Maximum temperature yesterday: 32 °F (at 1:50 pm)
Minimum temperature yesterday: 21 °F (at 12:20 am)
Average temperature yesterday: 26 °F

High & Low Weather Summary for the Past Weeks

 TemperatureHumidityPressure
High39 °F (Jan 12, 11:20 am)100% (Jan 7, 6:50 pm)30.74 "Hg (Jan 7, 6:50 pm)
Low12 °F (Jan 7, 12:20 am)59% (Jan 7, 2:50 pm)29.00 "Hg (Jan 13, 6:20 am)
Average29 °F88%30.17 "Hg
* Reported Jan 6 9:20 pm — Jan 21 9:50 pm, Merseburg, Weather by CustomWeather, © 2017

Note: Actual official high and low records may vary slightly from our data, if they occured in-between our weather recording intervals... More about our weather records

Advertising

Merseburg Weather History for the Previous 24 Hours

Scroll right to see more
 ConditionsComfort  
Time TempWeatherWind HumidityBarometerVisibility
9:50 pm
Sat, Jan 21
25 °FIce fog.7 mph93%30.42 "Hg1 mi
9:20 pm27 °FIce fog.6 mph93%30.42 "Hg2 mi
8:50 pm25 °FIce fog.7 mph93%30.42 "Hg3 mi
8:20 pm27 °FClear.8 mph93%30.42 "Hg4 mi
7:50 pm27 °FClear.7 mph93%30.45 "Hg5 mi
7:20 pm25 °FClear.6 mph93%30.45 "Hg10 mi
6:50 pm27 °FClear.6 mph86%30.45 "Hg10 mi
6:20 pm28 °FClear.6 mph86%30.45 "Hg10 mi
5:50 pm28 °FClear.5 mph93%30.45 "Hg10 mi
5:20 pm28 °FClear.6 mph86%30.45 "Hg10 mi
4:50 pm30 °FClear.6 mph86%30.45 "Hg10 mi
4:20 pm32 °FSunny.6 mph80%30.45 "Hg10 mi
3:50 pm32 °FSunny.8 mph80%30.45 "Hg10 mi
3:20 pm34 °FSunny.8 mph81%30.45 "Hg10 mi
2:50 pm34 °FSunny.9 mph81%30.45 "Hg10 mi
2:20 pm34 °FPassing clouds.10 mph81%30.45 "HgN/A
1:50 pm34 °FPassing clouds.10 mph81%30.45 "HgN/A
1:20 pm34 °FPassing clouds.9 mph81%30.48 "HgN/A
12:50 pm34 °FPassing clouds.7 mph81%30.48 "HgN/A
12:20 pm34 °FPassing clouds.7 mph75%30.48 "HgN/A
11:50 am34 °FPassing clouds.1 mph70%30.51 "HgN/A
11:20 am32 °FPassing clouds.3 mph75%30.51 "HgN/A
10:50 am32 °FPassing clouds.2 mph69%30.51 "HgN/A
10:20 am30 °FPassing clouds.2 mph69%30.51 "HgN/A
9:50 am27 °FFog.3 mph86%30.51 "HgN/A
9:20 am25 °FFog.3 mph86%30.51 "Hg5 mi
8:50 am21 °FFog.2 mph86%30.51 "Hg5 mi
8:20 am19 °FIce fog.2 mph100%30.51 "Hg3 mi
7:50 am19 °FIce fog.2 mph100%30.48 "Hg3 mi
7:20 am19 °FPassing clouds.No wind93%30.48 "Hg4 mi
6:50 am19 °FPassing clouds.1 mph93%30.48 "Hg4 mi
6:20 am21 °FPassing clouds.1 mph93%30.48 "Hg5 mi
5:50 am19 °FPassing clouds.3 mph93%30.48 "Hg5 mi
5:20 am19 °FPassing clouds.1 mph93%30.48 "HgN/A
4:50 am19 °FPassing clouds.1 mph93%30.48 "HgN/A
4:20 am23 °FPassing clouds.1 mph93%30.51 "HgN/A
3:50 am21 °FPassing clouds.3 mph93%30.51 "HgN/A
3:20 am21 °FPassing clouds.2 mph93%30.51 "HgN/A
2:50 am23 °FPassing clouds.1 mph86%30.51 "HgN/A
2:20 am23 °FPassing clouds.2 mph86%30.51 "HgN/A
1:50 am23 °FPassing clouds.1 mph86%30.51 "HgN/A
1:20 am23 °FPassing clouds.1 mph86%30.51 "HgN/A
12:50 am23 °FPassing clouds.No wind86%30.51 "HgN/A
12:20 am25 °FPassing clouds.1 mph86%30.51 "HgN/A
11:50 pm
Fri, Jan 20
23 °FPassing clouds.2 mph86%30.51 "HgN/A
11:20 pm23 °FPassing clouds.2 mph86%30.54 "HgN/A
Weather by CustomWeather, © 2017

See weather overviewHow to use our weather pages